Weather in Komarovo

Russia / Perm Krai     57°18′23″N   55°39′25″E
temp.,
°C
wind,
m/s
gust,
m/s
humid.,
%
clouds,
%
prec.,
mm/h
press.,
hPa
HPBL,
m
28 july, wed
wed2823:00+12nne4862100 0.0 1013553
02:00+10nw11685 0.0 101420
05:00+6w22896 0.0 101433
08:00+9w3873100 0.0 1014329
11:00+12nw466737 0.0 1014851
14:00+15nw565698 0.2 10121732
17:00+14nnw475980 0.3 10131165
20:00+14n2564100 0.0 1012206
29 july, thu
thu2923:00+8ne11835 0.0 101310
02:00+7w008484 0.0 101310
05:00+7ssw228476 0.0 101314
08:00+12sw257163 0.0 1012209
11:00+18wsw57525 0.0 1010930
14:00+22w684013 0.0 10092525
17:00+23wnw584534 0.0 10062400
20:00+19wsw510645 0.0 1006539
30 july, fri
fri3023:00+13sw289368 1.2 1006155
02:00+13ssw259649 0.2 1006120
05:00+12s3898100 0.2 1004211
08:00+13s3899100 1.5 1003480
11:00+14ssw3698100 1.6 1002334
14:00+15sw369995 0.1 1003377
17:00+19w488684 1.0 1002735
20:00+18wnw498684 3.8 1003259
31 july, sat
sat3123:00+16wsw2294100 5.1 100417
02:00+15sw2294100 0.1 100516
05:00+14sw1194100 0.1 100514
08:00+17ssw239085 0.0 1006155
11:00+20ssw458299 0.1 1006415
14:00+21ssw678172 2.6 10051009
17:00+20ssw578676 3.6 1004653
20:00+20ssw488511 0.1 1003674
1 august, sun
sun123:00+17wsw3109845 1.4 1004320
02:00+16wsw259940 0.3 1005122
05:00+14sw239840 0.3 100553
08:00+17w38925 0.2 1007318
11:00+21w47735 0.8 1007683
14:00+23wnw5964100 1.6 10081549
17:00+24wnw585428 1.9 10082052
20:00+21nw257218 0.0 1009110